Lapse_Rate
8.0 7.9 7.7 7.4 7.4 7.7 7.4 7.2 6.9 6.6 6.2 5.9 5.7 5.6 5.5 5.5 5.3 5.2 5.3 5.2 5.4 5.6 5.6 5.8 6.0 6.1 6.2 6.2 6.2 6.3 6.3 6.4 6.4 6.4 6.4 6.4 5.9 6.2 6.2 6.2 6.3 6.4 6.1
8.1 7.9 7.8 7.6 7.5 7.7 7.6 7.3 7.2 6.6 6.2 6.0 5.8 5.6 5.5 5.5 5.4 5.3 5.2 5.2 5.3 5.5 5.6 5.8 6.1 6.2 6.2 6.2 6.3 6.4 6.4 6.4 6.4 6.5 6.4 6.3 6.3 6.1 6.3 5.7 5.9 6.4 6.3
7.8 7.9 7.9 7.7 7.7 7.8 7.6 7.3 7.2 6.7 6.4 6.1 5.8 5.7 5.5 5.5 5.3 5.4 5.2 5.2 5.2 5.3 5.4 5.6 5.9 6.1 6.2 6.3 6.3 6.4 6.4 6.5 6.6 6.6 6.5 6.3 6.3 6.5 6.1 6.3 6.4 6.5 6.4
7.8 7.9 7.8 7.8 7.8 7.9 7.8 7.5 7.3 6.9 6.5 6.2 5.9 5.8 5.6 5.6 5.3 5.3 5.3 5.3 5.3 5.4 5.5 5.6 5.9 6.0 6.1 6.2 6.3 6.4 6.4 6.4 6.5 6.5 6.6 6.4 6.3 6.3 6.3 6.3 6.4 6.2 6.3
8.1 8.0 7.8 7.9 8.0 8.0 8.0 7.7 7.4 7.1 6.8 6.4 6.0 5.8 5.7 5.6 5.4 5.3 5.4 5.3 5.3 5.4 5.4 5.6 5.8 5.9 6.0 6.0 6.2 6.3 6.3 6.4 6.3 6.4 6.4 6.3 6.2 6.2 6.2 6.2 6.3 6.3 6.2
8.2 8.3 7.9 8.0 8.1 8.0 8.1 7.9 7.6 7.3 7.0 6.7 6.3 6.0 5.7 5.6 5.4 5.3 5.4 5.4 5.3 5.4 5.4 5.4 5.6 5.8 5.9 6.0 6.0 6.1 6.2 6.1 6.1 6.1 6.2 6.1 6.1 6.2 6.1 6.2 6.2 6.1 6.3
8.3 8.3 8.1 8.0 8.1 8.0 8.0 7.9 7.7 7.5 7.2 6.8 6.7 6.3 5.8 5.6 5.3 5.3 5.3 5.4 5.4 5.4 5.4 5.4 5.5 5.8 5.8 5.9 5.9 5.9 6.0 6.1 6.0 6.0 6.0 6.0 6.0 6.1 6.1 6.1 6.1 6.1 6.4
8.1 8.2 8.2 8.1 8.1 8.1 7.9 7.9 7.8 7.8 7.4 6.9 6.5 6.4 6.2 5.7 5.5 5.3 5.3 5.4 5.4 5.4 5.5 5.5 5.4 5.5 5.6 5.8 5.8 5.9 5.8 5.8 5.9 6.0 6.1 6.1 6.1 6.0 6.1 6.1 6.2 6.2 6.5
8.1 8.2 8.3 8.0 8.1 8.1 8.1 7.8 7.8 7.8 7.8 7.2 6.6 6.4 6.5 6.0 5.8 5.4 5.3 5.4 5.5 5.5 5.5 5.5 5.5 5.4 5.5 5.5 5.6 5.7 5.8 5.6 5.7 5.9 6.1 6.1 6.2 5.9 6.2 6.2 6.3 6.4 6.3
8.1 8.3 8.2 8.0 8.0 8.2 8.2 8.1 7.9 7.8 7.7 7.6 6.9 6.5 6.3 6.2 6.2 5.7 5.5 5.5 5.5 5.6 5.5 5.5 5.5 5.3 5.4 5.4 5.6 5.7 5.8 5.6 5.6 5.8 5.9 6.0 6.2 6.0 6.0 6.0 6.0 6.1 6.2
8.0 8.2 8.2 8.1 8.1 8.1 8.2 8.2 8.0 7.8 7.7 7.7 7.3 6.7 6.3 6.2 6.1 5.9 5.7 5.6 5.6 5.6 5.5 5.6 5.6 5.5 5.5 5.5 5.6 5.7 5.7 5.7 5.7 5.7 5.8 6.0 6.2 6.2 5.9 5.9 5.9 6.0 6.0
8.1 8.0 8.3 8.2 8.0 8.1 8.2 8.2 8.1 8.0 7.9 7.9 7.8 7.3 7.0 6.6 6.2 5.9 5.6 5.7 5.7 5.7 5.7 5.7 5.7 5.7 5.6 5.6 5.6 5.7 5.7 5.8 5.7 5.7 5.7 5.9 6.1 6.2 6.0 5.8 5.7 5.7 5.2
7.9 8.1 8.2 8.3 8.1 8.0 8.1 8.2 8.1 8.1 8.0 7.9 7.8 7.6 7.1 6.8 6.6 6.3 6.0 6.0 5.9 5.9 5.9 5.8 5.8 5.8 5.6 5.7 5.7 5.7 5.8 5.7 5.7 5.7 5.6 5.8 6.1 6.2 5.9 5.7 5.8 5.7 5.5
7.7 8.1 8.3 8.3 8.2 7.9 8.0 8.1 8.1 8.1 8.2 8.0 7.9 7.7 7.6 7.3 7.0 6.8 6.5 6.2 6.1 6.1 6.1 6.0 5.9 6.0 5.8 5.8 5.8 5.8 5.9 5.7 5.8 5.8 5.8 5.7 6.0 6.1 6.0 5.7 5.8 5.7 5.3
7.6 7.9 8.2 8.1 8.1 7.9 8.0 8.1 8.1 8.0 8.2 8.1 7.9 7.8 7.7 7.5 7.2 7.0 6.8 6.4 6.3 6.3 6.3 6.3 6.1 6.1 6.0 6.0 6.1 6.1 6.0 6.0 5.9 5.9 5.9 5.8 5.8 6.0 6.1 5.9 5.8 5.6 5.5
7.5 7.8 7.9 8.0 8.0 7.9 8.0 8.1 8.1 8.1 8.1 8.1 8.0 7.8 7.7 7.5 7.3 7.1 6.9 6.7 6.6 6.6 6.6 6.4 6.3 6.3 6.2 6.2 6.3 6.3 6.1 6.2 6.1 6.1 6.1 6.1 5.8 5.9 6.1 6.0 5.9 6.0 5.7
7.5 7.8 8.0 7.9 7.9 7.9 7.9 8.1 8.1 8.2 8.1 8.1 8.1 7.9 7.7 7.6 7.5 7.3 7.2 7.0 6.9 6.8 6.8 6.7 6.7 6.6 6.5 6.3 6.4 6.5 6.4 6.3 6.3 6.3 6.3 6.3 6.1 5.9 6.1 6.1 6.2 6.1 6.0
7.3 7.6 7.9 8.0 8.1 8.1 7.9 7.9 8.1 8.2 8.3 8.1 7.8 7.7 7.6 7.6 7.5 7.4 7.4 7.3 7.1 7.0 7.0 7.0 6.9 6.9 6.7 6.6 6.5 6.6 6.7 6.6 6.6 6.6 6.5 6.5 6.3 6.0 6.1 6.0 6.1 6.1 5.9
7.0 7.5 7.7 8.2 8.1 8.4 8.0 7.8 8.0 8.1 8.1 8.0 7.8 7.6 7.4 7.6 7.5 7.5 7.5 7.4 7.3 7.2 7.2 7.2 7.1 7.0 6.8 6.8 6.8 6.7 6.8 6.8 6.8 6.7 6.6 6.7 6.6 6.3 6.1 6.3 6.0 6.0 5.8
7.3 7.1 7.5 8.0 8.3 8.4 8.4 7.7 7.8 7.9 7.9 8.0 7.9 7.7 7.5 7.3 7.4 7.5 7.4 7.3 7.4 7.3 7.3 7.3 7.3 7.1 7.1 7.1 6.9 6.9 7.0 6.9 7.0 6.8 6.7 6.7 6.7 6.6 6.4 6.1 6.3 6.1 5.8
7.1 7.0 7.1 7.5 8.3 8.3 8.3 7.9 7.7 7.8 8.0 7.9 7.9 7.8 7.6 7.5 7.3 7.3 7.4 7.4 7.5 7.4 7.5 7.4 7.3 7.2 7.3 7.1 7.0 7.1 7.1 7.0 7.1 7.0 6.8 6.7 6.8 6.8 6.6 6.6 6.5 6.2 5.9
6.3 6.6 7.0 7.0 7.9 8.3 8.3 8.4 8.1 8.1 8.1 8.0 7.9 7.9 7.6 7.4 7.3 7.3 7.4 7.5 7.6 7.4 7.2 7.4 7.3 7.4 7.3 7.2 7.3 7.2 7.1 7.1 7.4 7.1 6.8 6.8 6.7 6.7 6.6 6.6 6.7 6.5 6.2
5.3 6.4 6.5 6.8 7.1 8.0 8.4 8.4 8.5 8.2 7.8 7.9 7.7 7.7 7.5 7.5 7.5 7.5 7.3 7.5 7.5 7.4 7.2 7.1 6.9 7.0 7.1 7.2 7.1 7.0 6.9 7.2 7.2 7.3 7.0 6.8 6.8 6.7 6.7 6.6 6.7 6.6 6.2
4.4 5.7 6.6 6.2 6.7 7.4 8.4 8.3 8.6 8.0 8.0 8.1 8.1 7.9 7.7 7.7 7.7 7.8 7.6 7.8 7.7 7.4 7.2 6.8 6.5 6.4 6.4 6.8 6.8 7.3 7.1 7.1 7.2 7.2 7.4 6.9 6.9 6.7 6.7 6.6 6.6 6.8 6.6
4.0 5.1 6.1 6.2 5.9 7.1 7.9 8.4 8.5 8.3 8.0 8.1 8.0 7.8 7.8 7.7 7.6 7.7 7.7 8.0 7.7 7.2 7.0 7.0 7.0 6.4 6.1 5.9 6.4 6.7 6.9 7.0 7.3 7.1 7.2 7.5 7.1 6.6 6.5 6.5 6.7 6.6 6.4
6.1 5.9 5.8 6.3 5.8 6.6 7.3 8.4 8.4 8.3 7.9 7.8 8.0 7.8 7.9 7.8 7.6 7.5 7.5 7.2 7.2 6.9 6.6 5.8 5.6 6.4 6.4 6.1 5.8 6.2 6.5 6.6 6.8 6.6 6.9 6.4 6.8 7.1 6.9 6.7 6.6 6.6 6.3
Wind_Speed
12 20 23 21 17 17 15 14 15 19 22 21 20 20 20 20 19 19 19 18 17 17 15 14 13 12 14 12 11 12 12 15 16 16 16 17 18 15 17 12 12 20 16
14 23 24 23 19 17 16 16 15 19 22 22 21 21 20 20 19 19 19 18 18 16 15 13 13 14 14 13 13 13 14 16 16 16 14 15 13 14 20 10 15 16 19
17 23 26 23 20 19 17 16 16 20 22 23 22 22 21 20 20 20 18 17 17 16 15 14 15 15 14 14 15 14 14 15 16 15 13 13 13 13 14 13 13 17 18
17 22 24 22 21 21 18 17 18 20 22 22 22 22 21 21 20 19 18 16 16 16 16 15 15 15 15 16 15 15 15 14 14 15 13 9 14 11 13 13 14 17 17
16 21 22 23 22 23 21 19 18 19 21 21 21 22 21 21 21 19 17 17 15 14 15 15 15 15 16 17 17 16 15 14 12 16 11 10 11 11 13 13 15 18 18
16 20 23 22 23 23 22 21 20 19 20 20 21 21 21 21 20 18 17 17 15 15 14 15 15 15 17 17 16 15 15 13 13 7 9 8 11 14 13 12 14 17 20
14 17 22 20 22 23 22 21 20 20 20 20 21 21 21 20 19 19 18 17 16 15 14 14 15 17 17 17 16 16 15 9 5 7 9 10 12 13 14 14 16 16 19
11 12 19 18 20 22 22 20 21 21 21 20 19 20 21 20 19 19 19 17 16 16 16 16 17 17 17 16 16 16 13 6 6 6 5 9 15 16 15 16 17 17 18
9 10 15 19 19 18 21 22 22 22 22 21 20 20 21 21 21 20 19 17 17 17 17 18 19 18 17 16 16 15 12 8 4 7 6 8 13 16 18 16 16 18 19
10 12 13 18 19 19 19 20 22 22 23 23 21 21 21 22 22 21 20 18 18 18 18 18 19 19 18 16 15 13 11 6 5 5 6 13 14 12 17 17 16 15 17
9 12 13 15 16 19 19 19 20 21 22 22 20 19 21 19 20 20 21 21 19 18 18 18 18 18 18 14 14 13 12 9 4 5 5 13 12 12 16 19 18 16 14
13 14 14 15 15 16 16 19 21 20 21 21 22 21 21 19 20 20 18 21 19 19 18 17 17 17 17 14 13 11 12 3 6 4 3 11 11 11 13 17 18 16 14
12 12 15 14 14 15 13 15 17 18 19 20 23 23 21 18 18 18 16 17 16 17 15 16 15 15 15 11 11 11 8 7 5 6 5 10 11 10 13 18 19 17 19
10 15 16 16 15 16 12 9 12 9 16 14 21 23 18 12 14 15 13 18 17 17 15 16 14 14 11 11 10 9 8 7 6 5 6 10 10 10 12 18 16 17 17
15 15 18 18 17 16 15 12 12 13 11 17 20 20 21 13 12 14 13 15 15 15 15 13 13 12 11 11 11 10 10 9 6 7 6 12 12 12 11 14 17 19 18
16 15 18 20 18 17 15 16 12 11 15 17 18 21 23 19 11 12 11 10 10 13 15 14 10 8 9 10 8 10 10 9 9 7 8 8 13 14 13 13 16 19 20
16 16 18 20 20 18 18 16 13 11 14 11 13 20 21 21 17 13 11 11 11 13 14 14 12 11 8 7 9 8 9 9 8 8 9 9 11 15 15 13 13 18 19
20 19 18 18 21 21 18 15 13 13 12 11 16 18 20 20 20 15 11 11 15 13 13 10 10 9 9 8 8 8 8 9 9 9 10 9 10 10 16 16 14 16 19
22 20 20 20 22 23 20 15 15 15 14 13 15 15 21 19 19 15 11 11 16 10 10 10 10 10 10 9 8 8 6 6 6 8 10 10 11 10 11 13 15 14 14
24 22 21 18 22 23 16 13 12 12 12 13 14 13 21 18 20 15 11 11 15 12 11 10 12 11 10 10 8 7 7 7 6 6 9 12 12 12 14 14 13 15 15
25 25 23 21 22 17 16 16 15 13 12 11 12 15 17 17 19 13 11 12 13 13 13 13 11 13 10 9 5 5 6 8 9 8 9 9 10 14 13 15 14 13 14
25 25 24 24 24 21 17 16 15 14 15 14 13 15 19 16 15 11 15 13 14 11 13 12 14 6 6 8 6 5 4 5 8 11 10 10 11 11 10 15 16 13 14
25 26 25 26 25 24 24 15 13 12 12 13 14 14 15 17 17 13 14 13 12 11 9 10 11 13 6 7 13 6 4 7 4 6 12 11 12 8 10 11 11 15 16
24 24 25 25 25 24 25 20 23 17 16 14 14 13 13 18 17 17 16 12 10 7 7 6 7 10 10 9 6 11 14 8 5 5 5 9 11 10 12 8 12 15 16
21 23 21 23 24 24 24 23 18 18 13 12 12 14 14 13 17 14 12 13 9 7 5 3 5 9 11 10 10 8 12 9 7 7 10 6 8 10 10 11 9 12 15
6 12 16 21 20 21 21 22 20 19 15 11 10 10 10 10 9 12 14 12 11 8 6 3 7 10 10 10 11 12 11 9 12 10 9 9 10 9 10 9 9 9 14
Wind_Direction
168 153 157 161 162 146 141 139 148 144 144 146 149 148 147 144 142 138 135 136 138 138 136 134 136 137 133 126 122 126 121 120 123 120 121 123 120 118 108 123 146 117 114
169 158 158 158 160 145 140 137 144 146 146 148 149 147 145 142 142 139 140 140 143 142 140 132 127 130 125 124 123 123 126 128 129 124 124 110 112 121 125 143 116 124 119
168 162 164 155 156 144 140 137 143 147 149 150 149 145 143 143 143 141 142 141 142 142 140 134 127 128 127 122 121 119 119 117 123 128 148 132 128 127 131 120 120 116 117
166 162 164 154 155 146 143 141 146 149 149 149 147 146 145 145 146 145 142 143 142 140 139 135 130 127 123 118 117 118 116 121 134 157 176 141 124 128 123 128 127 121 120
165 168 159 155 155 148 147 147 148 148 147 149 148 148 148 150 149 149 145 147 143 142 143 140 135 129 124 125 124 123 122 131 155 202 125 134 133 129 127 130 130 128 138
167 169 147 156 155 152 150 150 151 151 149 150 149 151 153 154 153 149 150 149 147 146 147 144 136 133 132 133 127 124 131 141 191 121 128 115 137 128 134 128 120 125 129
170 170 166 160 155 152 154 155 152 152 152 153 153 155 157 157 155 152 156 154 152 148 145 140 138 136 138 137 133 133 140 160 178 138 136 153 121 125 130 122 126 126 127
184 174 169 162 156 154 157 157 156 155 156 158 159 160 159 160 158 159 160 164 157 149 147 145 143 142 141 142 141 141 148 178 177 134 143 133 133 135 136 131 128 127 127
194 188 173 177 167 156 157 161 162 162 162 163 165 166 163 164 164 164 163 167 160 156 154 151 149 149 146 149 147 146 152 191 177 139 169 144 148 151 147 141 137 136 135
194 194 184 184 179 176 174 166 167 168 169 169 170 171 170 170 168 166 165 169 166 163 159 157 156 156 153 153 155 151 154 184 191 164 183 105 154 172 149 144 144 139 137
212 203 193 189 186 183 182 179 174 174 173 171 171 172 174 181 179 171 180 169 172 168 166 161 163 164 162 157 158 164 174 199 176 198 188 126 166 171 163 154 151 148 150
222 208 199 196 189 188 186 185 189 186 186 187 183 180 185 188 187 184 174 173 177 171 172 167 166 168 176 176 178 184 214 156 213 197 159 148 174 179 177 164 161 155 163
230 211 209 199 194 195 190 189 192 189 190 193 189 184 192 192 187 191 177 181 183 177 179 178 172 186 201 195 183 197 198 200 220 214 139 169 192 186 184 176 172 179 172
245 220 205 205 200 201 196 188 191 197 193 193 193 191 192 194 188 196 188 188 189 184 188 193 191 205 196 210 200 198 200 220 200 224 153 181 207 212 202 196 186 180 181
260 224 216 207 203 201 206 195 195 200 196 196 194 194 199 197 192 194 196 189 197 183 194 194 201 204 203 203 210 209 204 209 212 235 226 179 216 227 223 218 193 191 184
258 231 218 210 205 202 202 206 194 203 192 201 195 194 202 200 193 197 199 201 197 182 198 201 205 203 210 207 207 213 217 214 206 220 224 198 200 222 233 233 227 200 192
263 244 218 213 204 197 204 206 197 195 201 197 197 200 197 204 195 195 207 201 192 197 203 206 201 212 211 213 215 207 220 222 226 227 234 242 193 214 231 234 234 215 204
268 252 235 207 205 200 198 209 199 195 202 200 204 199 198 200 204 200 193 209 195 181 201 205 202 205 215 216 222 220 220 225 221 234 240 240 243 246 198 224 227 220 217
261 257 242 212 210 204 198 199 206 203 206 199 203 205 203 196 204 200 200 199 197 187 200 206 206 208 210 215 222 224 225 230 241 246 244 239 243 255 257 187 215 219 216
260 255 252 223 209 202 193 191 202 204 209 205 201 207 201 204 198 199 200 199 204 200 195 201 202 209 214 209 217 219 225 237 224 228 249 240 239 247 246 245 203 216 215
260 260 248 238 204 202 194 186 190 194 201 218 208 209 204 204 204 195 202 199 206 210 201 200 195 204 206 212 174 221 237 233 232 234 244 247 235 240 240 241 239 227 205
257 256 249 244 207 203 203 193 190 190 198 204 209 204 205 201 196 200 206 208 205 212 204 200 199 185 195 189 194 193 216 230 234 232 232 235 241 255 241 241 240 231 229
254 252 250 240 219 204 210 197 193 184 196 201 206 212 204 195 190 197 207 218 204 212 206 200 202 196 196 196 217 201 215 241 203 200 238 237 227 236 244 246 233 237 241
252 253 247 241 223 208 203 202 191 187 193 201 206 205 204 203 201 195 210 202 205 189 195 198 206 213 215 205 225 236 251 287 206 211 206 215 232 221 230 230 240 231 230
247 244 250 232 229 210 199 207 194 192 195 197 201 202 203 203 204 202 198 186 173 166 146 189 219 226 232 228 212 213 231 232 254 263 255 204 210 222 220 221 231 224 226
327 264 240 234 236 216 195 201 197 196 189 188 174 176 190 186 191 177 160 150 149 174 154 208 227 228 231 245 240 226 217 211 220 219 231 242 227 225 231 227 227 230 222